Probability
0 0 0 0 0 0 0 0 0 0 0 0 0 0 0 0 0 0 0 0 0 0 0 0 0 0 0 0 0 0 0 0 0 0 0 0 0 0 0 0 0 0 0 0
0 0 0 0 0 0 0 0 0 0 0 0 0 0 0 0 0 0 0 0 0 0 0 0 0 0 0 0 0 0 0 0 0 0 0 0 0 0 0 0 0 0 0 0
0 0 0 0 0 0 0 0 0 0 0 0 0 0 0 0 0 0 0 0 0 0 0 0 0 0 0 0 0 0 0 0 0 0 0 0 0 0 0 0 0 0 0 0
0 0 0 0 0 0 0 0 0 0 0 0 0 0 0 0 0 0 0 0 0 0 0 0 0 0 0 0 0 0 0 0 0 0 0 0 0 0 0 0 0 0 0 0
0 0 0 0 0 0 0 0 0 0 0 0 0 0 0 0 0 0 0 0 0 0 0 0 0 0 0 0 0 0 0 0 0 0 0 0 0 0 0 0 0 0 0 0
0 0 0 0 0 0 0 0 0 0 0 0 0 0 0 0 0 0 0 0 0 0 0 0 0 0 0 0 0 0 0 0 0 0 0 0 0 0 0 0 0 0 0 0
0 0 0 0 0 0 0 0 0 0 0 0 0 0 0 0 0 0 0 0 0 0 0 0 0 0 0 0 0 0 0 0 0 0 0 0 0 0 0 0 0 0 0 0
0 0 0 0 0 0 0 0 0 0 0 0 0 0 0 0 0 0 0 0 0 0 0 0 0 0 0 0 0 0 0 0 0 0 0 0 0 0 0 0 0 0 0 0
0 0 0 0 0 0 0 0 0 0 0 0 0 0 0 0 0 0 0 0 0 0 0 0 0 0 0 0 0 0 0 0 0 0 0 0 0 0 0 0 0 0 0 0
0 0 0 0 0 0 0 0 0 0 0 0 0 0 0 0 0 0 0 0 0 0 0 0 0 0 0 0 0 0 0 0 0 0 0 0 0 0 0 0 0 0 0 0
0 0 0 0 0 0 0 0 0 0 0 0 0 0 0 0 0 0 0 0 0 0 0 0 0 0 0 0 0 0 0 0 0 0 0 0 0 0 0 0 0 0 0 0
0 0 0 0 0 0 0 0 0 0 0 0 0 0 0 0 0 0 0 0 0 0 0 0 0 0 0 0 0 0 0 0 0 0 0 0 0 0 0 0 0 0 0 0
0 0 0 0 0 0 0 0 0 0 0 0 0 0 0 0 0 0 0 0 0 0 0 0 0 0 0 0 0 0 0 0 0 0 0 0 0 0 0 0 0 0 0 0
0 0 0 0 0 0 0 0 0 0 0 0 0 0 0 0 0 0 0 0 0 0 0 0 0 0 0 0 0 0 0 0 0 0 0 0 0 0 0 0 0 0 0 0
0 0 0 0 0 0 0 0 0 0 0 0 0 0 0 0 0 0 0 0 0 0 0 0 0 0 0 0 0 0 0 0 0 0 0 0 0 0 0 0 0 0 0 0
0 0 0 0 0 0 0 0 0 0 0 0 0 0 0 0 0 0 0 0 0 0 0 0 0 0 0 0 0 0 0 0 0 0 0 0 0 0 0 0 0 0 0 0
0 0 0 0 0 0 0 0 0 0 0 0 0 0 0 0 0 0 0 0 0 0 0 0 0 0 0 0 0 0 0 0 0 0 0 0 0 0 0 0 0 0 0 0
0 0 0 0 0 0 0 0 0 0 0 0 0 0 0 0 0 0 0 0 0 0 0 0 0 0 0 0 0 0 0 0 0 0 0 0 0 0 0 0 0 0 0 0
0 0 0 0 0 0 0 0 0 0 0 0 0 0 0 0 0 0 0 0 0 0 0 0 0 0 0 0 0 0 0 0 0 0 0 0 0 0 0 0 0 0 0 0
0 0 0 0 0 0 0 0 0 0 0 0 0 0 0 0 0 0 0 0 0 0 0 0 0 0 0 0 0 0 0 0 0 0 0 0 0 0 0 0 0 0 0 0
0 0 0 0 0 0 0 0 0 0 0 0 0 0 0 0 0 0 0 0 0 0 0 0 0 0 0 0 0 0 0 0 0 0 0 0 0 0 0 0 0 0 0 0
0 0 0 0 0 0 0 0 0 0 0 0 0 0 0 0 0 0 0 0 0 0 0 0 0 0 0 0 0 0 0 0 0 0 0 0 0 0 0 0 0 0 0 0
0 0 0 0 0 0 0 0 0 0 0 0 0 0 0 0 0 0 0 0 0 0 0 0 0 0 0 0 0 0 0 0 0 0 0 0 0 0 0 0 0 0 0 0
0 0 0 0 0 0 0 0 0 0 0 0 0 0 0 0 0 0 0 0 0 0 0 0 0 0 0 0 0 0 0 0 0 0 0 0 0 0 0 0 0 0 0 0
0 0 0 0 0 0 0 0 0 0 0 0 0 0 0 0 0 0 0 0 0 0 0 0 0 0 0 0 0 0 0 0 0 0 0 0 0 0 0 0 0 0 0 0
0 0 0 0 0 0 0 0 0 0 0 0 0 0 0 0 0 0 0 0 0 0 0 0 0 0 0 0 0 0 0 0 0 0 0 0 0 0 0 0 0 0 0 0
Height
5668 5666 5664 5663 5660 5659 5658 5656 5656 5656 5656 5655 5656 5657 5659 5659 5659 5661 5663 5665 5667 5669 5672 5674 5678 5680 5683 5685 5688 5691 5694 5698 5701 5704 5708 5711 5714 5717 5720 5723 5726 5729 5732 5735
5658 5656 5654 5651 5649 5648 5647 5646 5646 5646 5645 5645 5645 5646 5647 5647 5648 5650 5652 5654 5655 5658 5660 5663 5665 5668 5671 5674 5676 5679 5682 5686 5689 5693 5696 5699 5702 5705 5708 5712 5714 5718 5721 5724
5648 5647 5643 5642 5640 5639 5638 5637 5636 5636 5635 5634 5634 5635 5637 5637 5637 5638 5640 5641 5643 5645 5648 5650 5653 5656 5658 5662 5665 5668 5670 5674 5677 5680 5683 5686 5689 5693 5696 5700 5703 5706 5709 5713
5638 5636 5634 5632 5631 5629 5629 5628 5627 5626 5625 5625 5625 5624 5627 5627 5627 5627 5628 5630 5631 5633 5635 5638 5640 5643 5646 5649 5652 5655 5658 5661 5664 5667 5670 5674 5677 5681 5685 5688 5691 5694 5698 5701
5629 5627 5625 5623 5622 5620 5620 5618 5617 5616 5615 5615 5614 5613 5616 5617 5616 5617 5618 5619 5620 5621 5623 5625 5627 5630 5633 5636 5639 5642 5645 5648 5651 5654 5657 5661 5664 5668 5671 5675 5678 5681 5685 5688
5620 5618 5616 5614 5613 5611 5611 5610 5608 5607 5605 5604 5606 5603 5604 5606 5606 5607 5607 5607 5609 5610 5611 5613 5615 5617 5620 5622 5625 5628 5631 5634 5637 5640 5643 5647 5651 5654 5658 5661 5665 5668 5671 5675
5612 5610 5608 5606 5605 5603 5602 5601 5599 5596 5595 5595 5595 5592 5594 5595 5595 5595 5596 5596 5597 5598 5599 5601 5602 5604 5606 5609 5612 5615 5618 5621 5623 5626 5630 5633 5637 5640 5644 5647 5651 5654 5658 5662
5604 5603 5600 5598 5596 5594 5593 5592 5590 5588 5586 5585 5585 5583 5585 5585 5584 5584 5584 5584 5585 5586 5588 5589 5590 5591 5593 5596 5598 5601 5604 5607 5610 5612 5616 5619 5622 5626 5629 5633 5636 5640 5644 5648
5596 5595 5592 5590 5588 5586 5584 5582 5581 5579 5576 5575 5574 5574 5575 5575 5574 5574 5574 5574 5574 5575 5576 5577 5578 5579 5581 5582 5585 5587 5590 5593 5596 5598 5602 5605 5608 5611 5615 5618 5622 5626 5630 5634
5589 5587 5585 5582 5580 5578 5576 5573 5571 5569 5566 5564 5564 5564 5565 5565 5565 5564 5564 5563 5563 5564 5565 5565 5566 5567 5569 5570 5572 5574 5577 5579 5582 5584 5587 5590 5593 5597 5600 5604 5607 5611 5616 5620
5582 5579 5577 5574 5572 5570 5568 5565 5562 5560 5558 5556 5554 5558 5556 5556 5555 5554 5553 5553 5553 5553 5554 5554 5555 5556 5557 5558 5560 5562 5564 5566 5569 5571 5574 5576 5580 5583 5586 5589 5593 5597 5601 5605
5574 5571 5568 5566 5564 5561 5559 5557 5554 5552 5550 5547 5545 5550 5547 5546 5544 5544 5543 5542 5542 5542 5543 5543 5544 5544 5545 5547 5548 5550 5551 5553 5556 5558 5560 5563 5566 5569 5572 5575 5579 5583 5587 5591
5565 5562 5559 5557 5557 5554 5551 5548 5546 5543 5541 5539 5538 5541 5538 5536 5534 5533 5533 5531 5531 5532 5532 5532 5533 5533 5534 5535 5536 5537 5539 5540 5542 5545 5547 5550 5552 5555 5559 5562 5565 5569 5573 5578
5556 5553 5552 5549 5546 5544 5542 5540 5537 5534 5532 5531 5530 5530 5530 5527 5525 5524 5523 5522 5521 5521 5521 5521 5522 5522 5523 5523 5524 5525 5526 5527 5529 5532 5534 5537 5540 5543 5546 5549 5552 5556 5560 5565
5548 5545 5543 5540 5538 5535 5533 5532 5529 5526 5524 5522 5522 5521 5521 5518 5516 5515 5514 5512 5511 5511 5511 5511 5511 5511 5512 5512 5512 5513 5514 5515 5517 5519 5522 5524 5527 5530 5533 5536 5540 5543 5548 5552
5539 5537 5534 5532 5530 5526 5524 5523 5520 5518 5516 5514 5513 5512 5511 5509 5507 5506 5504 5503 5501 5501 5500 5500 5500 5500 5500 5501 5501 5502 5503 5504 5505 5507 5510 5512 5514 5517 5521 5524 5527 5531 5535 5539
5532 5528 5525 5524 5521 5518 5516 5516 5513 5510 5508 5506 5504 5504 5502 5500 5498 5496 5494 5493 5492 5491 5490 5489 5489 5489 5489 5489 5490 5491 5492 5493 5494 5496 5498 5500 5502 5505 5508 5511 5514 5518 5522 5526
5524 5520 5516 5514 5513 5509 5512 5508 5505 5502 5500 5498 5496 5494 5493 5491 5489 5487 5485 5483 5481 5480 5479 5478 5478 5479 5479 5478 5479 5480 5480 5482 5483 5484 5486 5488 5490 5493 5496 5498 5501 5505 5508 5512
5515 5512 5508 5506 5502 5501 5502 5499 5496 5493 5491 5490 5487 5485 5483 5481 5479 5478 5475 5473 5471 5470 5469 5468 5467 5467 5468 5468 5468 5469 5469 5470 5471 5473 5475 5476 5478 5481 5483 5486 5489 5492 5495 5498
5507 5504 5501 5498 5494 5492 5495 5491 5487 5485 5483 5482 5478 5476 5474 5471 5470 5470 5466 5464 5462 5460 5459 5457 5457 5456 5456 5457 5457 5458 5458 5459 5460 5461 5463 5465 5467 5469 5471 5474 5477 5479 5482 5485
5499 5496 5493 5490 5485 5484 5485 5481 5478 5476 5476 5472 5469 5466 5464 5462 5460 5459 5457 5454 5452 5450 5448 5447 5446 5445 5445 5445 5446 5447 5447 5448 5449 5450 5451 5453 5455 5457 5459 5462 5464 5467 5469 5472
5490 5487 5484 5481 5478 5479 5476 5472 5469 5467 5465 5462 5459 5457 5455 5452 5450 5448 5446 5444 5442 5440 5438 5437 5436 5435 5435 5434 5435 5435 5436 5437 5438 5439 5440 5442 5443 5445 5447 5449 5452 5454 5456 5459
5482 5479 5476 5474 5473 5469 5466 5463 5460 5457 5455 5452 5450 5448 5445 5442 5440 5438 5436 5434 5432 5430 5429 5427 5426 5425 5424 5424 5424 5424 5425 5426 5426 5427 5428 5430 5431 5433 5435 5437 5439 5441 5443 5445
5473 5470 5467 5464 5462 5460 5456 5453 5450 5448 5445 5442 5440 5438 5435 5433 5430 5428 5426 5424 5422 5421 5419 5418 5416 5415 5414 5413 5413 5413 5413 5414 5415 5416 5417 5418 5419 5421 5423 5425 5427 5429 5431 5433
5464 5461 5457 5455 5453 5450 5448 5444 5441 5438 5435 5432 5430 5427 5425 5422 5420 5418 5416 5414 5412 5411 5409 5408 5406 5405 5404 5403 5403 5402 5403 5403 5404 5405 5406 5407 5408 5409 5411 5413 5415 5417 5419 5420
5456 5453 5449 5447 5444 5441 5439 5435 5432 5429 5426 5423 5420 5418 5415 5412 5410 5408 5406 5404 5402 5401 5399 5398 5397 5395 5394 5393 5393 5393 5393 5393 5393 5394 5395 5395 5396 5398 5399 5401 5402 5404 5406 5407
Wind_Speed
34 34 34 34 34 35 35 35 35 36 37 37 37 37 38 39 40 41 41 42 43 44 45 44 43 44 45 45 46 47 47 47 47 47 47 46 46 46 45 44 45 46 45 45
33 33 33 33 33 33 34 34 34 35 36 37 38 37 38 39 39 40 41 42 43 44 45 45 45 45 45 46 46 47 48 49 49 49 48 48 47 47 47 47 46 46 46 46
33 33 33 32 32 33 33 33 33 34 35 36 38 38 38 37 38 39 41 41 42 44 45 46 46 46 46 47 47 47 48 50 50 50 50 50 49 49 50 50 49 48 48 48
32 32 32 32 32 32 32 33 33 33 34 36 37 39 37 37 37 38 38 40 41 43 44 45 46 46 47 47 48 49 49 50 51 52 52 52 51 50 50 50 50 51 50 51
31 30 30 30 30 31 31 32 33 34 34 36 36 39 38 37 37 38 38 39 40 41 43 44 46 46 47 47 49 50 50 50 52 53 53 52 52 52 52 52 52 52 53 53
30 30 30 30 30 31 31 32 34 34 35 37 35 37 38 37 37 37 38 39 39 39 41 42 44 46 47 47 48 50 50 50 51 53 54 54 54 53 53 54 54 54 54 55
28 28 29 29 29 30 31 31 32 34 35 36 36 37 38 37 36 36 37 39 40 40 40 41 42 44 47 47 48 50 51 50 51 53 54 55 55 55 55 54 55 56 56 56
28 27 28 28 28 28 29 30 31 33 34 35 35 37 37 36 36 36 36 37 39 39 40 40 41 43 45 47 48 50 51 51 51 52 54 54 55 55 55 55 55 55 56 56
28 28 28 28 28 29 29 30 32 33 34 34 34 35 34 33 33 34 34 35 36 38 39 40 41 42 43 45 47 48 49 50 50 51 52 53 52 53 54 55 55 55 55 55
28 28 27 28 28 29 30 30 30 32 33 34 33 33 33 31 31 31 32 33 34 35 36 38 39 41 42 43 44 47 47 48 49 50 51 52 53 52 53 54 54 55 55 55
30 29 28 28 28 28 29 29 29 31 32 33 34 33 32 32 32 32 31 32 33 34 35 36 37 39 40 41 43 44 46 47 48 49 50 50 52 53 52 53 54 54 55 55
31 31 30 29 29 28 28 28 29 30 31 32 33 31 30 31 31 32 32 33 33 34 33 34 35 37 39 40 41 42 44 46 47 48 48 49 50 51 52 52 53 53 54 54
31 31 31 30 29 29 28 27 28 29 30 31 31 29 29 29 30 31 32 33 33 33 34 34 34 36 37 39 40 41 42 43 45 47 48 48 48 49 50 51 52 52 52 52
31 31 31 30 30 30 28 27 28 30 30 30 29 28 28 29 29 30 31 32 33 33 34 34 35 35 36 38 39 41 41 42 43 45 47 47 47 48 48 50 51 51 51 52
31 31 30 30 29 29 29 28 29 30 29 29 28 28 28 29 29 30 31 31 32 33 34 35 35 35 36 37 38 39 40 40 41 43 45 46 46 47 48 48 50 51 51 51
31 31 30 29 29 29 29 28 29 29 29 29 29 29 29 30 30 31 32 32 32 33 34 35 35 36 36 37 37 38 38 39 40 42 44 45 46 46 47 48 49 50 51 52
30 30 30 29 29 29 29 27 27 28 28 28 29 28 29 30 30 31 31 32 32 33 35 36 36 36 35 36 37 37 38 39 39 39 41 44 46 46 47 48 49 50 51 52
30 29 30 29 29 29 27 26 27 28 28 28 29 29 29 30 31 31 32 32 32 33 34 35 36 36 36 35 36 37 37 38 39 39 40 42 44 45 46 47 48 49 50 51
29 29 29 29 30 30 28 27 28 28 29 29 29 29 29 30 31 31 32 33 32 32 32 33 35 36 36 36 36 36 37 38 39 39 40 40 42 43 44 45 46 47 47 49
29 29 29 30 31 32 29 29 29 29 29 28 30 30 30 31 31 31 31 32 31 32 32 32 33 34 36 36 36 36 37 37 38 39 40 40 41 42 42 43 44 44 45 47
30 30 30 31 32 32 31 30 30 30 30 29 30 30 31 31 31 31 31 31 32 32 32 32 32 33 34 35 36 36 36 37 38 39 39 40 42 42 41 42 43 43 44 45
30 30 30 31 32 32 31 31 30 30 30 30 30 30 31 31 31 31 31 31 31 31 31 31 31 32 33 34 35 36 35 36 37 38 38 39 40 42 42 42 43 43 44 44
29 29 30 30 31 31 31 31 31 31 32 32 31 31 31 31 31 31 31 31 30 30 29 30 30 31 32 33 33 35 35 36 36 37 38 38 39 41 42 42 43 43 43 43
29 30 30 31 30 30 30 30 31 31 32 32 32 32 31 32 32 31 31 31 31 30 29 29 30 30 30 31 32 33 34 35 36 36 37 38 38 40 40 41 42 43 43 43
30 30 30 30 29 30 30 31 31 31 31 31 31 31 32 32 31 31 31 31 31 31 30 30 30 30 29 30 30 31 31 32 34 35 35 36 38 38 39 40 40 41 42 43
29 29 29 29 29 30 30 31 31 31 31 31 31 31 31 31 31 31 30 30 31 31 31 31 31 30 29 28 28 29 29 30 30 32 33 34 35 37 38 38 39 40 41 41
Wind_Direction
284 283 281 280 276 274 273 273 272 268 266 264 262 262 260 258 257 254 253 252 250 250 251 250 249 249 249 248 247 246 246 246 246 246 246 246 246 245 246 246 246 245 245 245
284 282 281 279 276 273 271 271 270 268 266 264 263 262 261 259 257 255 254 253 253 252 251 251 250 249 248 247 247 247 247 246 247 247 246 246 245 245 246 246 246 246 245 245
286 284 281 278 275 273 271 271 270 269 267 265 264 262 261 260 259 256 255 255 254 253 252 252 251 249 248 246 247 247 248 247 246 246 246 247 247 246 246 246 246 246 245 246
288 285 280 277 275 274 272 271 270 269 267 266 265 265 262 261 260 258 257 257 256 254 253 252 251 249 248 247 247 247 247 248 247 247 247 247 247 247 248 248 248 246 246 246
290 287 282 278 276 275 274 273 271 269 268 267 266 267 264 263 261 260 259 258 256 255 254 252 251 250 248 247 247 247 247 248 248 248 248 247 247 247 248 247 248 247 246 246
291 287 283 281 278 276 274 273 272 270 268 266 267 268 267 265 264 263 261 259 257 256 255 254 253 251 249 248 247 247 247 248 248 248 247 247 247 247 248 247 247 247 246 246
293 289 286 283 280 278 278 276 275 271 269 268 269 268 269 268 266 265 263 260 258 257 256 255 254 252 249 249 248 247 247 247 248 248 247 247 247 247 248 248 247 246 246 246
294 290 288 287 285 282 281 278 276 275 275 274 272 271 271 270 269 267 265 263 261 259 258 257 255 253 252 250 250 248 248 247 247 247 247 247 246 246 247 247 246 245 246 246
297 292 289 288 287 286 284 281 278 277 277 276 273 272 271 270 268 267 266 265 263 261 260 259 258 256 254 253 251 250 248 247 247 246 247 246 246 245 246 246 246 245 244 244
299 295 292 290 289 287 286 284 281 278 277 278 276 272 273 271 270 270 269 267 265 263 262 260 259 258 256 254 253 250 249 247 247 247 246 246 245 245 246 246 246 245 244 243
299 297 294 292 290 289 287 284 283 280 277 278 278 276 274 274 273 272 271 269 266 265 263 261 260 258 257 256 254 253 251 249 248 248 248 247 246 246 246 247 246 245 244 244
299 297 295 293 291 289 287 286 284 281 279 277 279 280 278 276 273 272 271 269 267 265 263 263 261 259 257 256 255 255 254 252 250 249 248 248 247 247 246 247 246 245 244 243
298 296 295 292 291 289 287 286 284 282 280 278 279 281 279 278 275 272 271 269 267 265 263 263 262 260 258 256 256 255 254 253 251 249 249 249 248 247 246 246 246 245 244 243
297 295 294 293 292 289 286 286 284 283 281 280 281 280 277 277 277 275 272 270 267 265 263 263 262 261 260 259 257 255 254 254 252 249 249 249 248 247 247 246 246 245 244 243
296 294 293 292 290 287 285 284 282 282 282 281 282 279 278 278 277 276 275 273 269 267 264 262 261 261 261 261 259 257 255 254 253 250 248 248 248 248 247 246 246 244 244 244
295 294 293 290 289 287 286 285 283 281 280 281 282 280 279 279 277 277 276 275 272 269 267 265 263 262 262 262 259 256 255 255 253 251 250 248 248 247 246 245 245 245 245 245
294 293 293 291 289 286 286 289 286 283 282 282 282 282 280 278 278 278 278 277 276 273 269 267 265 264 264 262 259 257 255 255 255 253 251 250 248 247 246 246 246 246 246 246
293 293 292 292 290 287 292 290 288 285 284 284 283 282 282 281 279 280 281 280 279 276 272 269 265 264 264 263 261 258 256 256 255 254 253 253 251 249 248 248 247 246 246 246
293 292 292 292 292 292 292 291 290 288 286 286 285 284 284 283 282 282 282 281 281 279 277 273 268 265 264 264 263 260 259 258 256 255 254 254 252 251 250 249 248 247 247 247
292 291 291 291 291 293 295 293 291 289 287 287 286 285 284 284 283 284 283 283 282 281 278 275 270 266 264 264 263 261 260 259 258 257 255 254 253 252 252 251 249 248 248 248
290 290 289 289 289 292 295 293 292 290 291 289 287 286 286 284 284 284 283 283 283 282 279 276 273 268 266 265 263 262 261 260 259 258 257 255 254 253 253 252 251 250 250 250
290 289 288 287 288 292 293 292 291 291 290 289 288 287 286 285 284 283 283 283 283 283 280 277 275 272 268 267 265 263 262 261 260 258 257 256 255 254 254 253 252 252 251 252
289 289 289 288 289 291 290 290 290 289 288 288 287 287 286 286 285 284 283 282 282 283 281 279 278 275 271 268 267 265 262 261 261 259 258 257 256 256 255 255 254 253 253 253
290 289 289 289 290 290 290 289 289 288 288 289 289 288 286 286 286 285 283 282 282 281 281 281 281 279 275 271 268 267 265 262 261 261 259 258 257 256 256 256 255 254 254 254
292 292 291 290 290 288 288 289 289 288 288 289 289 289 288 287 286 285 285 284 282 280 280 281 282 281 277 273 270 268 267 265 262 261 261 259 258 257 255 255 255 254 254 255
293 293 293 292 291 290 291 291 290 289 289 290 291 291 290 288 287 286 286 284 282 280 280 281 281 280 278 275 272 270 269 267 264 262 262 262 260 258 255 255 256 256 255 256